sat.trackr.live / text

‹ back to catalog

ONEWEB-0413

NORAD 50490 · 2021-132X

PAYLOAD ACTIVE UNKNOWN

§ Identity

Operator
Country
UK
Launch date
2021-12-27
Launch site
TYMSC
Launch vehicle
Mass (kg)
RCS (m²)

Purposes: comms

External: N2YO · Heavens-Above · Gunter

§ Orbital elements

Epoch: 2026-09-19T12:00:23.531904Z

Period
109.20 min
Inclination
87.9166°
Eccentricity
0.0002124
Mean motion
13.18685016 rev/d
Perigee alt
1,188.1 km
Apogee alt
1,191.4 km
Semi-major
7,567.9 km
B*
-2.5498e-4
RAAN
316.7162°
Arg perigee
90.0004°
Mean anomaly
270.1372°
Rev number
23,402

§ Raw data

ONEWEB-04131 50490U 21132X   26262.50027236 -.00000088  00000+0 -25498-3 0  99982 50490  87.9166 316.7162 0002124  90.0004 270.1372 13.18685016234027

JSON: /api/v1/satellites/50490 · /tle

For live sub-satellite position, see the globe view (requires WebGL).

§ Visibility from observer

Set your observer location to see the next 7 days of passes ≥ 10°. The values pass through the URL so the page stays shareable.

No JS? Fill the form by hand. The geolocation button needs JavaScript.